Time,TemperatureF,DewpointF,PressureIn,WindDirection,WindDirectionDegrees,WindSpeedMPH,WindSpeedGustMPH,Humidity,HourlyPrecipIn,Conditions,Clouds,dailyrainin,SoftwareType,DateUTC
2013-09-20 00:03:00,78.2,74.0,29.82,South,169,0.0,4.0,87,0.00,,,0.00,WeatherTracker,2013-09-20 05:03:00,
2013-09-20 00:08:00,78.1,73.9,29.82,SSE,160,0.0,3.0,87,0.00,,,0.00,WeatherTracker,2013-09-20 05:08:00,
2013-09-20 00:13:00,78.1,73.9,29.82,East,98,0.0,2.0,87,0.00,,,0.00,WeatherTracker,2013-09-20 05:13:00,
2013-09-20 00:18:00,78.0,73.8,29.82,SE,136,0.0,5.0,87,0.00,,,0.00,WeatherTracker,2013-09-20 05:18:00,
2013-09-20 00:23:00,77.9,74.0,29.82,SSE,165,0.0,5.0,88,0.00,,,0.00,WeatherTracker,2013-09-20 05:23:00,
2013-09-20 00:28:00,77.7,73.9,29.82,SSE,155,0.0,3.0,88,0.00,,,0.00,WeatherTracker,2013-09-20 05:28:00,
2013-09-20 00:33:00,77.6,73.8,29.82,ENE,58,0.0,3.0,88,0.00,,,0.00,WeatherTracker,2013-09-20 05:33:00,
2013-09-20 00:38:00,77.5,74.0,29.82,SE,137,0.0,3.0,89,0.00,,,0.00,WeatherTracker,2013-09-20 05:38:00,
2013-09-20 00:43:00,77.4,73.9,29.82,SSE,148,0.0,2.0,89,0.00,,,0.00,WeatherTracker,2013-09-20 05:43:00,
2013-09-20 00:48:00,77.3,73.8,29.82,ESE,118,0.0,3.0,89,0.00,,,0.00,WeatherTracker,2013-09-20 05:48:00,
2013-09-20 00:53:00,77.2,73.7,29.82,South,190,0.0,3.0,89,0.00,,,0.00,WeatherTracker,2013-09-20 05:53:00,
2013-09-20 00:58:00,77.2,74.0,29.82,South,181,0.0,1.0,90,0.00,,,0.00,WeatherTracker,2013-09-20 05:58:00,
2013-09-20 01:04:00,77.2,74.0,29.82,ESE,117,0.0,2.0,90,0.00,,,0.00,WeatherTracker,2013-09-20 06:04:00,
2013-09-20 01:09:00,77.2,74.0,29.82,ESE,102,0.0,2.0,90,0.00,,,0.00,WeatherTracker,2013-09-20 06:09:00,
2013-09-20 01:14:00,77.2,74.0,29.82,ENE,73,0.0,2.0,90,0.00,,,0.00,WeatherTracker,2013-09-20 06:14:00,
2013-09-20 01:19:00,77.3,74.1,29.82,East,93,0.0,3.0,90,0.00,,,0.00,WeatherTracker,2013-09-20 06:19:00,
2013-09-20 01:24:00,77.3,74.1,29.81,ESE,118,2.0,3.0,90,0.00,,,0.00,WeatherTracker,2013-09-20 06:24:00,
2013-09-20 01:29:00,77.3,74.1,29.81,ESE,121,1.0,3.0,90,0.00,,,0.00,WeatherTracker,2013-09-20 06:29:00,
2013-09-20 01:34:00,77.3,74.1,29.81,ESE,108,0.0,2.0,90,0.00,,,0.00,WeatherTracker,2013-09-20 06:34:00,
2013-09-20 01:39:00,77.3,74.1,29.81,East,94,0.0,1.0,90,0.00,,,0.00,WeatherTracker,2013-09-20 06:39:00,
2013-09-20 01:44:00,77.2,74.0,29.81,SSE,152,0.0,2.0,90,0.00,,,0.00,WeatherTracker,2013-09-20 06:44:00,
2013-09-20 01:49:00,77.2,74.0,29.81,SSE,161,0.0,2.0,90,0.00,,,0.00,WeatherTracker,2013-09-20 06:49:00,
2013-09-20 01:54:00,77.1,74.3,29.80,SE,137,0.0,1.0,91,0.00,,,0.00,WeatherTracker,2013-09-20 06:54:00,
2013-09-20 01:59:00,77.1,74.3,29.80,East,100,0.0,1.0,91,0.00,,,0.00,WeatherTracker,2013-09-20 06:59:00,
2013-09-20 02:04:00,77.0,74.2,29.80,SE,129,0.0,2.0,91,0.00,,,0.00,WeatherTracker,2013-09-20 07:04:00,
2013-09-20 02:09:00,77.0,74.2,29.80,SSE,149,0.0,2.0,91,0.00,,,0.00,WeatherTracker,2013-09-20 07:09:00,
2013-09-20 02:14:00,76.9,74.1,29.79,East,96,0.0,2.0,91,0.00,,,0.00,WeatherTracker,2013-09-20 07:14:00,
2013-09-20 02:19:00,76.8,74.0,29.79,ESE,111,0.0,2.0,91,0.00,,,0.00,WeatherTracker,2013-09-20 07:19:00,
2013-09-20 02:24:00,76.8,74.0,29.79,SE,146,0.0,1.0,91,0.00,,,0.00,WeatherTracker,2013-09-20 07:24:00,
2013-09-20 02:30:00,76.8,74.3,29.79,South,191,0.0,2.0,92,0.00,,,0.00,WeatherTracker,2013-09-20 07:30:00,
2013-09-20 02:35:00,76.8,74.3,29.79,SE,145,0.0,3.0,92,0.00,,,0.00,WeatherTracker,2013-09-20 07:35:00,
2013-09-20 02:40:00,76.8,74.3,29.79,SE,146,0.0,3.0,92,0.00,,,0.00,WeatherTracker,2013-09-20 07:40:00,
2013-09-20 02:45:00,76.8,74.3,29.79,SE,139,0.0,3.0,92,0.00,,,0.00,WeatherTracker,2013-09-20 07:45:00,
2013-09-20 02:50:00,76.7,74.2,29.79,East,89,1.0,3.0,92,0.00,,,0.00,WeatherTracker,2013-09-20 07:50:00,
2013-09-20 02:55:00,76.7,74.2,29.78,SE,142,0.0,3.0,92,0.00,,,0.00,WeatherTracker,2013-09-20 07:55:00,
2013-09-20 03:00:00,76.7,74.2,29.78,ENE,70,0.0,3.0,92,0.00,,,0.00,WeatherTracker,2013-09-20 08:00:00,
2013-09-20 03:05:00,76.6,74.1,29.78,NE,48,0.0,3.0,92,0.00,,,0.00,WeatherTracker,2013-09-20 08:05:00,
2013-09-20 03:10:00,76.6,74.1,29.78,ESE,115,0.0,2.0,92,0.00,,,0.00,WeatherTracker,2013-09-20 08:10:00,
2013-09-20 03:15:00,76.5,74.0,29.78,SE,133,0.0,2.0,92,0.00,,,0.00,WeatherTracker,2013-09-20 08:15:00,
2013-09-20 03:20:00,76.5,74.3,29.78,SSW,207,0.0,2.0,93,0.00,,,0.00,WeatherTracker,2013-09-20 08:20:00,
2013-09-20 03:25:00,76.4,74.2,29.78,ESE,118,0.0,3.0,93,0.00,,,0.00,WeatherTracker,2013-09-20 08:25:00,
2013-09-20 03:30:00,76.4,74.2,29.78,ESE,120,0.0,3.0,93,0.00,,,0.00,WeatherTracker,2013-09-20 08:30:00,
2013-09-20 03:35:00,76.4,74.2,29.78,SE,146,0.0,2.0,93,0.00,,,0.00,WeatherTracker,2013-09-20 08:35:00,
2013-09-20 03:40:00,76.5,74.3,29.78,SE,143,0.0,1.0,93,0.00,,,0.00,WeatherTracker,2013-09-20 08:40:00,
2013-09-20 03:45:00,76.5,74.3,29.78,SE,144,0.0,1.0,93,0.00,,,0.00,WeatherTracker,2013-09-20 08:45:00,
2013-09-20 03:50:00,76.6,74.4,29.78,ENE,78,0.0,1.0,93,0.00,,,0.00,WeatherTracker,2013-09-20 08:50:00,
2013-09-20 03:55:00,76.6,74.4,29.78,ESE,103,0.0,2.0,93,0.00,,,0.00,WeatherTracker,2013-09-20 08:55:00,
2013-09-20 04:01:00,76.7,74.5,29.78,East,88,0.0,1.0,93,0.00,,,0.00,WeatherTracker,2013-09-20 09:01:00,
2013-09-20 04:06:00,76.7,74.5,29.78,SE,137,0.0,1.0,93,0.00,,,0.00,WeatherTracker,2013-09-20 09:06:00,
2013-09-20 04:11:00,76.7,74.5,29.77,SE,144,0.0,1.0,93,0.00,,,0.00,WeatherTracker,2013-09-20 09:11:00,
2013-09-20 04:16:00,76.7,74.5,29.77,SE,142,0.0,1.0,93,0.00,,,0.00,WeatherTracker,2013-09-20 09:16:00,
2013-09-20 04:21:00,76.8,74.6,29.77,East,98,0.0,1.0,93,0.00,,,0.00,WeatherTracker,2013-09-20 09:21:00,
2013-09-20 04:26:00,76.8,74.6,29.77,East,86,0.0,1.0,93,0.00,,,0.00,WeatherTracker,2013-09-20 09:26:00,
2013-09-20 04:31:00,76.7,74.5,29.77,ESE,103,0.0,4.0,93,0.00,,,0.00,WeatherTracker,2013-09-20 09:31:00,
2013-09-20 04:36:00,76.5,74.3,29.77,East,87,0.0,4.0,93,0.00,,,0.00,WeatherTracker,2013-09-20 09:36:00,
2013-09-20 04:41:00,76.5,74.6,29.77,ESE,105,0.0,2.0,94,0.00,,,0.00,WeatherTracker,2013-09-20 09:41:00,
2013-09-20 04:46:00,76.4,74.5,29.77,SE,136,0.0,2.0,94,0.00,,,0.00,WeatherTracker,2013-09-20 09:46:00,
2013-09-20 04:51:00,76.4,74.5,29.76,SSE,165,0.0,2.0,94,0.00,,,0.00,WeatherTracker,2013-09-20 09:51:00,
2013-09-20 04:56:00,76.3,74.4,29.76,ESE,105,0.0,2.0,94,0.00,,,0.00,WeatherTracker,2013-09-20 09:56:00,
2013-09-20 05:01:00,76.1,74.2,29.76,ESE,118,0.0,1.0,94,0.00,,,0.00,WeatherTracker,2013-09-20 10:01:00,
2013-09-20 05:06:00,76.0,74.1,29.76,SE,134,0.0,1.0,94,0.00,,,0.00,WeatherTracker,2013-09-20 10:06:00,
2013-09-20 05:11:00,75.9,74.0,29.76,SE,134,0.0,1.0,94,0.00,,,0.00,WeatherTracker,2013-09-20 10:11:00,
2013-09-20 05:16:00,75.9,74.4,29.76,SE,134,0.0,0.0,95,0.00,,,0.00,WeatherTracker,2013-09-20 10:16:00,
2013-09-20 05:21:00,75.9,74.4,29.76,SE,132,0.0,1.0,95,0.00,,,0.00,WeatherTracker,2013-09-20 10:21:00,
2013-09-20 05:26:00,75.8,74.3,29.76,SE,132,0.0,1.0,95,0.00,,,0.00,WeatherTracker,2013-09-20 10:26:00,
2013-09-20 05:31:00,75.8,74.3,29.76,SE,132,0.0,0.0,95,0.00,,,0.00,WeatherTracker,2013-09-20 10:31:00,
2013-09-20 05:36:00,75.9,74.4,29.76,East,100,0.0,1.0,95,0.00,,,0.00,WeatherTracker,2013-09-20 10:36:00,
2013-09-20 05:41:00,75.9,74.4,29.76,ESE,122,0.0,1.0,95,0.01,,,0.01,WeatherTracker,2013-09-20 10:41:00,
2013-09-20 05:47:00,75.9,74.4,29.75,SE,124,0.0,1.0,95,0.04,,,0.04,WeatherTracker,2013-09-20 10:47:00,
2013-09-20 05:52:00,75.9,74.4,29.75,SSE,166,1.0,1.0,95,0.04,,,0.04,WeatherTracker,2013-09-20 10:52:00,
2013-09-20 05:57:00,75.9,74.7,29.75,ENE,77,0.0,2.0,96,0.04,,,0.04,WeatherTracker,2013-09-20 10:57:00,
2013-09-20 06:02:00,75.9,74.7,29.75,SE,139,0.0,2.0,96,0.04,,,0.04,WeatherTracker,2013-09-20 11:02:00,
2013-09-20 06:07:00,75.9,74.7,29.75,East,86,0.0,1.0,96,0.04,,,0.04,WeatherTracker,2013-09-20 11:07:00,
2013-09-20 06:12:00,75.9,74.7,29.75,SSE,155,0.0,1.0,96,0.04,,,0.04,WeatherTracker,2013-09-20 11:12:00,
2013-09-20 06:17:00,75.9,74.7,29.75,SE,133,0.0,1.0,96,0.04,,,0.04,WeatherTracker,2013-09-20 11:17:00,
2013-09-20 06:22:00,75.8,74.6,29.75,East,84,0.0,2.0,96,0.04,,,0.04,WeatherTracker,2013-09-20 11:22:00,
2013-09-20 06:27:00,75.8,74.6,29.75,ESE,118,0.0,2.0,96,0.04,,,0.04,WeatherTracker,2013-09-20 11:27:00,
2013-09-20 06:32:00,75.8,74.6,29.75,SE,131,0.0,1.0,96,0.04,,,0.04,WeatherTracker,2013-09-20 11:32:00,
2013-09-20 06:37:00,75.8,74.6,29.75,ESE,116,0.0,1.0,96,0.04,,,0.04,WeatherTracker,2013-09-20 11:37:00,
2013-09-20 06:42:00,75.8,74.6,29.75,East,97,0.0,1.0,96,0.02,,,0.04,WeatherTracker,2013-09-20 11:42:00,
2013-09-20 06:47:00,75.8,74.6,29.75,East,97,0.0,1.0,96,0.00,,,0.04,WeatherTracker,2013-09-20 11:47:00,
2013-09-20 06:52:00,75.8,74.6,29.75,East,86,0.0,1.0,96,0.00,,,0.04,WeatherTracker,2013-09-20 11:52:00,
2013-09-20 06:57:00,75.8,74.6,29.75,East,86,0.0,1.0,96,0.00,,,0.04,WeatherTracker,2013-09-20 11:57:00,
2013-09-20 07:02:00,75.8,74.6,29.75,East,90,0.0,1.0,96,0.00,,,0.04,WeatherTracker,2013-09-20 12:02:00,
2013-09-20 07:07:00,75.8,74.6,29.75,SSE,165,0.0,1.0,96,0.00,,,0.04,WeatherTracker,2013-09-20 12:07:00,
2013-09-20 07:13:00,75.8,74.6,29.75,East,97,0.0,1.0,96,0.00,,,0.04,WeatherTracker,2013-09-20 12:13:00,
2013-09-20 07:18:00,75.8,74.6,29.75,SE,132,0.0,1.0,96,0.02,,,0.06,WeatherTracker,2013-09-20 12:18:00,
2013-09-20 07:23:00,75.8,74.6,29.75,ESE,117,0.0,3.0,96,0.02,,,0.06,WeatherTracker,2013-09-20 12:23:00,
2013-09-20 07:28:00,75.7,74.5,29.75,SE,143,0.0,3.0,96,0.02,,,0.06,WeatherTracker,2013-09-20 12:28:00,
2013-09-20 07:33:00,75.7,74.5,29.75,ESE,115,0.0,2.0,96,0.04,,,0.08,WeatherTracker,2013-09-20 12:33:00,
2013-09-20 07:38:00,75.7,74.8,29.75,SSE,150,0.0,1.0,97,0.06,,,0.10,WeatherTracker,2013-09-20 12:38:00,
2013-09-20 07:43:00,75.7,74.8,29.76,SE,146,0.0,1.0,97,0.06,,,0.10,WeatherTracker,2013-09-20 12:43:00,
2013-09-20 07:48:00,75.8,74.9,29.76,SSE,148,0.0,0.0,97,0.06,,,0.10,WeatherTracker,2013-09-20 12:48:00,
2013-09-20 07:53:00,75.8,74.9,29.76,SSE,148,0.0,0.0,97,0.06,,,0.10,WeatherTracker,2013-09-20 12:53:00,
2013-09-20 07:58:00,75.9,75.0,29.76,SE,138,0.0,1.0,97,0.06,,,0.10,WeatherTracker,2013-09-20 12:58:00,
2013-09-20 08:03:00,75.9,75.0,29.76,ESE,118,0.0,1.0,97,0.06,,,0.10,WeatherTracker,2013-09-20 13:03:00,
2013-09-20 08:08:00,75.9,75.0,29.76,SE,146,0.0,1.0,97,0.06,,,0.10,WeatherTracker,2013-09-20 13:08:00,
2013-09-20 08:13:00,76.0,75.1,29.77,SE,145,0.0,1.0,97,0.06,,,0.10,WeatherTracker,2013-09-20 13:13:00,
2013-09-20 08:18:00,76.0,75.1,29.77,ESE,107,0.0,1.0,97,0.04,,,0.10,WeatherTracker,2013-09-20 13:18:00,
2013-09-20 08:23:00,75.9,75.0,29.77,South,174,0.0,1.0,97,0.04,,,0.10,WeatherTracker,2013-09-20 13:23:00,
2013-09-20 08:28:00,76.0,75.1,29.77,ESE,119,1.0,1.0,97,0.05,,,0.11,WeatherTracker,2013-09-20 13:28:00,
2013-09-20 08:33:00,75.9,75.0,29.77,East,82,0.0,3.0,97,0.03,,,0.11,WeatherTracker,2013-09-20 13:33:00,
2013-09-20 08:38:00,75.8,74.9,29.77,East,82,1.0,3.0,97,0.01,,,0.11,WeatherTracker,2013-09-20 13:38:00,
2013-09-20 08:43:00,75.8,74.9,29.77,SSE,159,1.0,3.0,97,0.01,,,0.11,WeatherTracker,2013-09-20 13:43:00,
2013-09-20 08:48:00,75.9,75.0,29.77,East,94,0.0,3.0,97,0.01,,,0.11,WeatherTracker,2013-09-20 13:48:00,
2013-09-20 08:54:00,75.9,75.0,29.77,SE,138,3.0,4.0,97,0.01,,,0.11,WeatherTracker,2013-09-20 13:54:00,
2013-09-20 08:59:00,75.9,75.0,29.77,SE,124,0.0,4.0,97,0.01,,,0.11,WeatherTracker,2013-09-20 13:59:00,
2013-09-20 09:04:00,76.2,75.3,29.77,SE,144,0.0,4.0,97,0.01,,,0.11,WeatherTracker,2013-09-20 14:04:00,
2013-09-20 09:09:00,76.4,75.5,29.77,SE,128,0.0,4.0,97,0.01,,,0.11,WeatherTracker,2013-09-20 14:09:00,
2013-09-20 09:14:00,76.5,75.6,29.77,SE,132,1.0,3.0,97,0.01,,,0.11,WeatherTracker,2013-09-20 14:14:00,
2013-09-20 09:19:00,76.4,75.2,29.77,SE,138,1.0,3.0,96,0.01,,,0.11,WeatherTracker,2013-09-20 14:19:00,
2013-09-20 09:24:00,76.5,75.3,29.77,SSW,193,1.0,2.0,96,0.00,,,0.11,WeatherTracker,2013-09-20 14:24:00,
2013-09-20 09:29:00,76.5,75.3,29.77,ESE,103,0.0,3.0,96,0.00,,,0.11,WeatherTracker,2013-09-20 14:29:00,
2013-09-20 09:34:00,76.6,75.4,29.77,SE,132,1.0,3.0,96,0.00,,,0.11,WeatherTracker,2013-09-20 14:34:00,
2013-09-20 09:39:00,76.7,75.5,29.77,ENE,71,1.0,2.0,96,0.00,,,0.11,WeatherTracker,2013-09-20 14:39:00,
2013-09-20 09:44:00,76.9,75.7,29.77,SSE,158,0.0,3.0,96,0.00,,,0.11,WeatherTracker,2013-09-20 14:44:00,
2013-09-20 09:49:00,77.2,76.0,29.77,SSE,162,1.0,3.0,96,0.00,,,0.11,WeatherTracker,2013-09-20 14:49:00,
2013-09-20 09:54:00,77.4,76.2,29.77,SSE,167,2.0,3.0,96,0.00,,,0.11,WeatherTracker,2013-09-20 14:54:00,
2013-09-20 09:59:00,77.4,76.2,29.77,ESE,105,0.0,4.0,96,0.00,,,0.11,WeatherTracker,2013-09-20 14:59:00,
2013-09-20 10:04:00,77.7,76.5,29.77,West,259,0.0,4.0,96,0.00,,,0.11,WeatherTracker,2013-09-20 15:04:00,
2013-09-20 10:09:00,77.7,76.1,29.77,ENE,78,0.0,5.0,95,0.00,,,0.11,WeatherTracker,2013-09-20 15:09:00,
2013-09-20 10:14:00,78.0,76.4,29.77,East,89,0.0,5.0,95,0.00,,,0.11,WeatherTracker,2013-09-20 15:14:00,
2013-09-20 10:19:00,79.0,77.4,29.76,NNW,329,0.0,5.0,95,0.00,,,0.11,WeatherTracker,2013-09-20 15:19:00,
2013-09-20 10:24:00,79.7,77.5,29.77,West,259,1.0,4.0,93,0.00,,,0.11,WeatherTracker,2013-09-20 15:24:00,
2013-09-20 10:30:00,79.8,76.9,29.77,West,265,0.0,4.0,91,0.00,,,0.11,WeatherTracker,2013-09-20 15:30:00,
2013-09-20 10:35:00,79.8,76.6,29.76,West,267,0.0,3.0,90,0.00,,,0.11,WeatherTracker,2013-09-20 15:35:00,
2013-09-20 10:40:00,79.7,76.5,29.76,SSE,153,1.0,2.0,90,0.00,,,0.11,WeatherTracker,2013-09-20 15:40:00,
2013-09-20 10:45:00,79.6,76.4,29.76,West,273,0.0,2.0,90,0.00,,,0.11,WeatherTracker,2013-09-20 15:45:00,
2013-09-20 10:50:00,79.8,76.9,29.76,SW,234,0.0,2.0,91,0.00,,,0.11,WeatherTracker,2013-09-20 15:50:00,
2013-09-20 10:55:00,79.9,76.4,29.76,WNW,285,1.0,2.0,89,0.00,,,0.11,WeatherTracker,2013-09-20 15:55:00,
2013-09-20 11:00:00,79.8,76.3,29.76,West,278,0.0,4.0,89,0.00,,,0.11,WeatherTracker,2013-09-20 16:00:00,
2013-09-20 11:05:00,79.7,76.2,29.76,WSW,243,0.0,4.0,89,0.00,,,0.11,WeatherTracker,2013-09-20 16:05:00,
2013-09-20 11:10:00,79.6,76.1,29.76,SE,125,0.0,2.0,89,0.00,,,0.11,WeatherTracker,2013-09-20 16:10:00,
2013-09-20 11:15:00,79.6,76.1,29.76,SE,136,0.0,1.0,89,0.00,,,0.11,WeatherTracker,2013-09-20 16:15:00,
2013-09-20 11:20:00,79.5,76.3,29.76,SE,145,1.0,2.0,90,0.00,,,0.11,WeatherTracker,2013-09-20 16:20:00,
2013-09-20 11:25:00,79.4,75.9,29.76,WSW,240,0.0,2.0,89,0.00,,,0.11,WeatherTracker,2013-09-20 16:25:00,
2013-09-20 11:30:00,79.4,76.2,29.76,WSW,240,0.0,1.0,90,0.00,,,0.11,WeatherTracker,2013-09-20 16:30:00,
2013-09-20 11:35:00,79.2,75.7,29.76,SE,139,0.0,4.0,89,0.00,,,0.11,WeatherTracker,2013-09-20 16:35:00,
2013-09-20 11:40:00,79.2,76.0,29.76,ESE,117,0.0,4.0,90,0.00,,,0.11,WeatherTracker,2013-09-20 16:40:00,
2013-09-20 11:45:00,79.1,75.9,29.76,WSW,250,0.0,2.0,90,0.00,,,0.11,WeatherTracker,2013-09-20 16:45:00,
2013-09-20 11:50:00,79.0,75.8,29.76,NW,312,0.0,2.0,90,0.00,,,0.11,WeatherTracker,2013-09-20 16:50:00,
2013-09-20 11:55:00,78.9,75.7,29.76,WNW,291,0.0,1.0,90,0.00,,,0.11,WeatherTracker,2013-09-20 16:55:00,
2013-09-20 12:00:00,78.7,75.2,29.75,SW,228,0.0,1.0,89,0.00,,,0.11,WeatherTracker,2013-09-20 17:00:00,
2013-09-20 12:05:00,78.7,75.5,29.75,WSW,243,0.0,1.0,90,0.00,,,0.11,WeatherTracker,2013-09-20 17:05:00,
2013-09-20 12:11:00,78.8,75.6,29.75,WSW,244,0.0,1.0,90,0.00,,,0.11,WeatherTracker,2013-09-20 17:11:00,
2013-09-20 12:16:00,78.9,75.7,29.75,WSW,245,0.0,1.0,90,0.00,,,0.11,WeatherTracker,2013-09-20 17:16:00,
2013-09-20 12:21:00,78.9,76.0,29.75,WSW,243,0.0,1.0,91,0.02,,,0.13,WeatherTracker,2013-09-20 17:21:00,
2013-09-20 12:26:00,78.6,75.7,29.75,WSW,242,0.0,1.0,91,0.06,,,0.17,WeatherTracker,2013-09-20 17:26:00,
2013-09-20 12:31:00,78.1,75.2,29.75,SE,132,0.0,4.0,91,0.15,,,0.26,WeatherTracker,2013-09-20 17:31:00,
2013-09-20 12:36:00,77.7,75.2,29.75,WSW,255,0.0,4.0,92,0.15,,,0.26,WeatherTracker,2013-09-20 17:36:00,
2013-09-20 12:41:00,77.6,75.4,29.75,WSW,246,0.0,1.0,93,0.16,,,0.27,WeatherTracker,2013-09-20 17:41:00,
2013-09-20 12:46:00,77.8,75.9,29.75,WSW,246,0.0,0.0,94,0.16,,,0.27,WeatherTracker,2013-09-20 17:46:00,
2013-09-20 12:51:00,78.4,77.2,29.75,WSW,246,0.0,1.0,96,0.16,,,0.27,WeatherTracker,2013-09-20 17:51:00,
2013-09-20 12:56:00,79.2,77.6,29.74,WSW,246,0.0,1.0,95,0.16,,,0.27,WeatherTracker,2013-09-20 17:56:00,
2013-09-20 13:01:00,79.3,77.7,29.74,ESE,105,0.0,1.0,95,0.16,,,0.27,WeatherTracker,2013-09-20 18:01:00,
2013-09-20 13:06:00,79.8,77.9,29.74,ESE,105,0.0,1.0,94,0.16,,,0.27,WeatherTracker,2013-09-20 18:06:00,
2013-09-20 13:11:00,79.7,77.5,29.74,WSW,248,0.0,0.0,93,0.16,,,0.27,WeatherTracker,2013-09-20 18:11:00,
2013-09-20 13:16:00,79.6,77.4,29.73,WSW,249,0.0,0.0,93,0.17,,,0.28,WeatherTracker,2013-09-20 18:16:00,
2013-09-20 13:21:00,79.5,77.0,29.73,WSW,249,0.0,0.0,92,0.17,,,0.30,WeatherTracker,2013-09-20 18:21:00,
2013-09-20 13:26:00,79.2,77.0,29.73,West,259,0.0,0.0,93,0.14,,,0.31,WeatherTracker,2013-09-20 18:26:00,
2013-09-20 13:31:00,78.9,76.4,29.73,West,266,0.0,1.0,92,0.05,,,0.31,WeatherTracker,2013-09-20 18:31:00,
2013-09-20 13:36:00,78.7,76.5,29.72,West,266,0.0,1.0,93,0.05,,,0.31,WeatherTracker,2013-09-20 18:36:00,
2013-09-20 13:42:00,78.7,76.8,29.72,West,266,0.0,0.0,94,0.04,,,0.31,WeatherTracker,2013-09-20 18:42:00,
2013-09-20 13:47:00,78.8,76.9,29.72,West,265,0.0,0.0,94,0.04,,,0.31,WeatherTracker,2013-09-20 18:47:00,
2013-09-20 13:52:00,78.6,76.7,29.72,West,263,0.0,0.0,94,0.04,,,0.31,WeatherTracker,2013-09-20 18:52:00,
2013-09-20 13:57:00,78.4,76.5,29.73,West,263,0.0,0.0,94,0.04,,,0.31,WeatherTracker,2013-09-20 18:57:00,
2013-09-20 14:02:00,78.3,76.4,29.73,West,263,0.0,0.0,94,0.04,,,0.31,WeatherTracker,2013-09-20 19:02:00,
2013-09-20 14:07:00,78.1,76.2,29.73,ENE,78,0.0,1.0,94,0.04,,,0.31,WeatherTracker,2013-09-20 19:07:00,
2013-09-20 14:12:00,77.4,75.2,29.73,West,262,0.0,4.0,93,0.08,,,0.35,WeatherTracker,2013-09-20 19:12:00,
2013-09-20 14:17:00,76.6,74.4,29.73,NW,309,0.0,4.0,93,0.10,,,0.39,WeatherTracker,2013-09-20 19:17:00,
2013-09-20 14:22:00,76.1,74.2,29.73,NW,319,0.0,3.0,94,0.10,,,0.41,WeatherTracker,2013-09-20 19:22:00,
2013-09-20 14:27:00,75.8,73.9,29.72,WNW,297,0.0,1.0,94,0.11,,,0.42,WeatherTracker,2013-09-20 19:27:00,
2013-09-20 14:32:00,75.6,74.1,29.72,North,4,0.0,2.0,95,0.12,,,0.43,WeatherTracker,2013-09-20 19:32:00,
2013-09-20 14:37:00,75.7,74.2,29.72,North,357,0.0,2.0,95,0.12,,,0.43,WeatherTracker,2013-09-20 19:37:00,
2013-09-20 14:42:00,75.8,74.6,29.72,NW,311,0.0,2.0,96,0.12,,,0.43,WeatherTracker,2013-09-20 19:42:00,
2013-09-20 14:47:00,76.0,74.8,29.72,North,10,1.0,3.0,96,0.12,,,0.43,WeatherTracker,2013-09-20 19:47:00,
2013-09-20 14:52:00,76.3,75.1,29.72,NNE,28,0.0,3.0,96,0.12,,,0.43,WeatherTracker,2013-09-20 19:52:00,
2013-09-20 14:57:00,76.6,75.4,29.72,NE,47,0.0,2.0,96,0.12,,,0.43,WeatherTracker,2013-09-20 19:57:00,
2013-09-20 15:02:00,76.9,75.7,29.72,NNE,30,0.0,3.0,96,0.12,,,0.43,WeatherTracker,2013-09-20 20:02:00,
2013-09-20 15:07:00,76.6,75.4,29.72,NNW,329,0.0,4.0,96,0.12,,,0.43,WeatherTracker,2013-09-20 20:07:00,
2013-09-20 15:12:00,76.1,74.6,29.71,WNW,295,3.0,5.0,95,0.09,,,0.45,WeatherTracker,2013-09-20 20:12:00,
2013-09-20 15:17:00,75.4,73.5,29.71,WNW,293,2.0,5.0,94,0.07,,,0.47,WeatherTracker,2013-09-20 20:17:00,
2013-09-20 15:22:00,75.1,73.6,29.71,ENE,65,1.0,5.0,95,0.07,,,0.48,WeatherTracker,2013-09-20 20:22:00,
2013-09-20 15:27:00,74.8,73.3,29.72,WNW,293,2.0,5.0,95,0.09,,,0.51,WeatherTracker,2013-09-20 20:27:00,
2013-09-20 15:32:00,74.5,73.0,29.72,NNW,348,0.0,6.0,95,0.12,,,0.55,WeatherTracker,2013-09-20 20:32:00,
2013-09-20 15:37:00,74.1,72.6,29.72,WNW,293,0.0,6.0,95,0.17,,,0.60,WeatherTracker,2013-09-20 20:37:00,
2013-09-20 15:43:00,73.7,72.2,29.72,NNE,13,0.0,5.0,95,0.23,,,0.66,WeatherTracker,2013-09-20 20:43:00,
2013-09-20 15:48:00,73.5,72.0,29.72,West,262,3.0,5.0,95,0.27,,,0.70,WeatherTracker,2013-09-20 20:48:00,
2013-09-20 15:53:00,73.6,72.4,29.72,NNW,345,0.0,8.0,96,0.28,,,0.71,WeatherTracker,2013-09-20 20:53:00,
2013-09-20 15:58:00,73.8,72.6,29.72,NW,324,1.0,8.0,96,0.28,,,0.71,WeatherTracker,2013-09-20 20:58:00,
2013-09-20 16:03:00,74.0,72.8,29.72,NW,325,1.0,8.0,96,0.28,,,0.71,WeatherTracker,2013-09-20 21:03:00,
2013-09-20 16:08:00,74.0,72.8,29.72,NE,49,4.0,5.0,96,0.28,,,0.71,WeatherTracker,2013-09-20 21:08:00,
2013-09-20 16:13:00,73.9,72.7,29.71,NNW,341,5.0,7.0,96,0.25,,,0.71,WeatherTracker,2013-09-20 21:13:00,
2013-09-20 16:18:00,74.0,72.8,29.72,WNW,300,2.0,9.0,96,0.24,,,0.71,WeatherTracker,2013-09-20 21:18:00,
2013-09-20 16:23:00,74.0,72.8,29.72,North,1,2.0,9.0,96,0.22,,,0.71,WeatherTracker,2013-09-20 21:23:00,
2013-09-20 16:28:00,74.0,72.8,29.72,NW,325,0.0,6.0,96,0.20,,,0.71,WeatherTracker,2013-09-20 21:28:00,
2013-09-20 16:33:00,74.0,72.5,29.72,North,357,0.0,6.0,95,0.16,,,0.71,WeatherTracker,2013-09-20 21:33:00,
2013-09-20 16:38:00,74.0,72.5,29.72,NNW,336,1.0,6.0,95,0.10,,,0.71,WeatherTracker,2013-09-20 21:38:00,
2013-09-20 16:43:00,73.8,72.3,29.72,NE,35,1.0,6.0,95,0.04,,,0.71,WeatherTracker,2013-09-20 21:43:00,
2013-09-20 16:49:00,73.7,72.2,29.72,NE,51,2.0,6.0,95,0.00,,,0.71,WeatherTracker,2013-09-20 21:49:00,
2013-09-20 16:54:00,73.6,72.1,29.72,NW,313,3.0,6.0,95,0.00,,,0.71,WeatherTracker,2013-09-20 21:54:00,
2013-09-20 16:59:00,73.5,72.0,29.71,West,277,1.0,6.0,95,0.00,,,0.71,WeatherTracker,2013-09-20 21:59:00,
2013-09-20 17:04:00,73.4,71.9,29.71,NE,54,3.0,6.0,95,0.00,,,0.71,WeatherTracker,2013-09-20 22:04:00,
2013-09-20 17:09:00,73.3,71.8,29.71,NE,47,1.0,8.0,95,0.00,,,0.71,WeatherTracker,2013-09-20 22:09:00,
2013-09-20 17:14:00,73.2,71.7,29.71,NE,48,3.0,9.0,95,0.01,,,0.72,WeatherTracker,2013-09-20 22:14:00,
2013-09-20 17:19:00,73.1,71.6,29.71,ENE,70,3.0,9.0,95,0.01,,,0.72,WeatherTracker,2013-09-20 22:19:00,
2013-09-20 17:24:00,73.1,71.6,29.71,NE,44,2.0,7.0,95,0.02,,,0.73,WeatherTracker,2013-09-20 22:24:00,
2013-09-20 17:29:00,73.1,71.6,29.71,NE,49,6.0,6.0,95,0.02,,,0.73,WeatherTracker,2013-09-20 22:29:00,
2013-09-20 17:34:00,73.0,71.5,29.71,NNE,30,1.0,8.0,95,0.02,,,0.73,WeatherTracker,2013-09-20 22:34:00,
2013-09-20 17:39:00,73.0,71.5,29.72,NE,47,1.0,8.0,95,0.02,,,0.73,WeatherTracker,2013-09-20 22:39:00,
2013-09-20 17:44:00,73.0,71.5,29.72,NE,44,3.0,8.0,95,0.02,,,0.73,WeatherTracker,2013-09-20 22:44:00,
2013-09-20 17:49:00,73.0,71.5,29.72,NE,38,6.0,8.0,95,0.02,,,0.73,WeatherTracker,2013-09-20 22:49:00,
2013-09-20 17:54:00,73.0,71.5,29.72,NE,51,1.0,8.0,95,0.02,,,0.73,WeatherTracker,2013-09-20 22:54:00,
2013-09-20 17:59:00,73.1,71.6,29.73,ENE,73,2.0,8.0,95,0.02,,,0.73,WeatherTracker,2013-09-20 22:59:00,
2013-09-20 18:05:00,73.0,71.2,29.73,ENE,69,1.0,6.0,94,0.02,,,0.73,WeatherTracker,2013-09-20 23:05:00,
2013-09-20 18:10:00,72.9,71.1,29.72,NE,40,2.0,6.0,94,0.02,,,0.73,WeatherTracker,2013-09-20 23:10:00,
2013-09-20 18:15:00,72.9,71.1,29.73,NE,53,3.0,9.0,94,0.01,,,0.73,WeatherTracker,2013-09-20 23:15:00,
2013-09-20 18:20:00,72.9,71.1,29.73,ENE,58,2.0,10.0,94,0.01,,,0.73,WeatherTracker,2013-09-20 23:20:00,
2013-09-20 18:25:00,72.7,70.6,29.73,NE,47,2.0,11.0,93,0.00,,,0.73,WeatherTracker,2013-09-20 23:25:00,
2013-09-20 18:30:00,72.7,70.6,29.73,ENE,77,3.0,11.0,93,0.00,,,0.73,WeatherTracker,2013-09-20 23:30:00,
2013-09-20 18:35:00,72.6,70.5,29.74,West,271,1.0,14.0,93,0.00,,,0.73,WeatherTracker,2013-09-20 23:35:00,
2013-09-20 18:40:00,72.4,70.3,29.74,NE,54,4.0,14.0,93,0.00,,,0.73,WeatherTracker,2013-09-20 23:40:00,
2013-09-20 18:45:00,72.2,70.1,29.74,ENE,57,5.0,13.0,93,0.00,,,0.73,WeatherTracker,2013-09-20 23:45:00,
2013-09-20 18:50:00,72.0,69.9,29.74,NE,39,2.0,10.0,93,0.00,,,0.73,WeatherTracker,2013-09-20 23:50:00,
2013-09-20 18:55:00,71.8,69.7,29.75,East,79,0.0,10.0,93,0.00,,,0.73,WeatherTracker,2013-09-20 23:55:00,
2013-09-20 19:00:00,71.7,69.6,29.75,NE,43,0.0,9.0,93,0.00,,,0.73,WeatherTracker,2013-09-21 00:00:00,
2013-09-20 19:05:00,71.6,69.5,29.75,SE,137,0.0,7.0,93,0.00,,,0.73,WeatherTracker,2013-09-21 00:05:00,
2013-09-20 19:10:00,71.6,69.5,29.75,ENE,64,0.0,7.0,93,0.00,,,0.73,WeatherTracker,2013-09-21 00:10:00,
2013-09-20 19:16:00,71.6,69.5,29.76,NE,49,1.0,7.0,93,0.00,,,0.73,WeatherTracker,2013-09-21 00:16:00,
2013-09-20 19:21:00,71.6,69.5,29.76,ENE,71,1.0,7.0,93,0.00,,,0.73,WeatherTracker,2013-09-21 00:21:00,
2013-09-20 19:26:00,71.6,69.5,29.76,NNE,27,3.0,5.0,93,0.00,,,0.73,WeatherTracker,2013-09-21 00:26:00,
2013-09-20 19:31:00,71.6,69.5,29.75,ENE,73,1.0,5.0,93,0.00,,,0.73,WeatherTracker,2013-09-21 00:31:00,
2013-09-20 19:36:00,71.5,69.4,29.76,ENE,76,3.0,7.0,93,0.00,,,0.73,WeatherTracker,2013-09-21 00:36:00,
2013-09-20 19:41:00,71.4,69.3,29.75,ENE,72,2.0,7.0,93,0.00,,,0.73,WeatherTracker,2013-09-21 00:41:00,
2013-09-20 19:46:00,71.3,69.2,29.76,NNE,23,1.0,7.0,93,0.00,,,0.73,WeatherTracker,2013-09-21 00:46:00,
2013-09-20 19:51:00,71.3,69.2,29.77,NE,49,4.0,7.0,93,0.00,,,0.73,WeatherTracker,2013-09-21 00:51:00,
2013-09-20 19:56:00,71.3,69.2,29.77,ENE,65,2.0,7.0,93,0.00,,,0.73,WeatherTracker,2013-09-21 00:56:00,
2013-09-20 20:01:00,71.2,69.4,29.77,ENE,75,1.0,4.0,94,0.01,,,0.74,WeatherTracker,2013-09-21 01:01:00,
2013-09-20 20:06:00,71.1,69.3,29.77,ESE,123,0.0,4.0,94,0.02,,,0.75,WeatherTracker,2013-09-21 01:06:00,
2013-09-20 20:11:00,71.0,69.2,29.77,North,1,1.0,4.0,94,0.02,,,0.75,WeatherTracker,2013-09-21 01:11:00,
2013-09-20 20:16:00,70.9,69.4,29.76,East,81,2.0,4.0,95,0.02,,,0.75,WeatherTracker,2013-09-21 01:16:00,
2013-09-20 20:21:00,70.8,69.3,29.76,ESE,108,4.0,6.0,95,0.02,,,0.75,WeatherTracker,2013-09-21 01:21:00,
2013-09-20 20:26:00,70.8,69.3,29.77,ENE,68,1.0,6.0,95,0.02,,,0.75,WeatherTracker,2013-09-21 01:26:00,
2013-09-20 20:31:00,70.7,69.2,29.77,NE,49,2.0,5.0,95,0.02,,,0.75,WeatherTracker,2013-09-21 01:31:00,
2013-09-20 20:36:00,70.7,69.2,29.77,ENE,59,0.0,5.0,95,0.02,,,0.75,WeatherTracker,2013-09-21 01:36:00,
2013-09-20 20:42:00,70.7,69.2,29.77,ENE,73,2.0,5.0,95,0.02,,,0.75,WeatherTracker,2013-09-21 01:42:00,
2013-09-20 20:47:00,70.6,69.1,29.77,East,83,1.0,5.0,95,0.02,,,0.75,WeatherTracker,2013-09-21 01:47:00,
2013-09-20 20:52:00,70.6,69.1,29.77,ENE,68,0.0,4.0,95,0.02,,,0.75,WeatherTracker,2013-09-21 01:52:00,
2013-09-20 20:57:00,70.6,69.1,29.77,NE,49,0.0,4.0,95,0.01,,,0.75,WeatherTracker,2013-09-21 01:57:00,
2013-09-20 21:02:00,70.5,69.0,29.77,ENE,68,1.0,3.0,95,0.01,,,0.75,WeatherTracker,2013-09-21 02:02:00,
2013-09-20 21:07:00,70.6,69.4,29.77,ENE,66,0.0,3.0,96,0.00,,,0.75,WeatherTracker,2013-09-21 02:07:00,
2013-09-20 21:12:00,70.5,69.3,29.78,ENE,72,0.0,4.0,96,0.00,,,0.75,WeatherTracker,2013-09-21 02:12:00,
2013-09-20 21:17:00,70.5,69.3,29.79,WNW,294,1.0,4.0,96,0.00,,,0.75,WeatherTracker,2013-09-21 02:17:00,
2013-09-20 21:22:00,70.6,69.4,29.78,NE,55,1.0,4.0,96,0.00,,,0.75,WeatherTracker,2013-09-21 02:22:00,
2013-09-20 21:27:00,70.5,69.3,29.79,NNE,17,0.0,5.0,96,0.01,,,0.76,WeatherTracker,2013-09-21 02:27:00,
2013-09-20 21:32:00,70.5,69.3,29.78,NNE,25,1.0,5.0,96,0.01,,,0.76,WeatherTracker,2013-09-21 02:32:00,
2013-09-20 21:37:00,70.5,69.3,29.78,ENE,66,2.0,3.0,96,0.01,,,0.76,WeatherTracker,2013-09-21 02:37:00,
2013-09-20 21:42:00,70.4,68.9,29.78,SSE,163,0.0,4.0,95,0.01,,,0.76,WeatherTracker,2013-09-21 02:42:00,
2013-09-20 21:47:00,70.4,69.2,29.78,East,83,1.0,4.0,96,0.01,,,0.76,WeatherTracker,2013-09-21 02:47:00,
2013-09-20 21:52:00,70.4,68.9,29.79,NE,54,1.0,4.0,95,0.01,,,0.76,WeatherTracker,2013-09-21 02:52:00,
2013-09-20 21:57:00,70.3,68.8,29.79,ENE,59,0.0,4.0,95,0.01,,,0.76,WeatherTracker,2013-09-21 02:57:00,
2013-09-20 22:02:00,70.3,68.8,29.79,East,101,2.0,3.0,95,0.01,,,0.76,WeatherTracker,2013-09-21 03:02:00,
2013-09-20 22:07:00,70.3,68.8,29.79,NE,53,0.0,3.0,95,0.01,,,0.76,WeatherTracker,2013-09-21 03:07:00,
2013-09-20 22:12:00,70.3,68.8,29.80,NE,42,0.0,2.0,95,0.01,,,0.76,WeatherTracker,2013-09-21 03:12:00,
2013-09-20 22:18:00,70.3,68.8,29.80,NNE,22,0.0,3.0,95,0.01,,,0.76,WeatherTracker,2013-09-21 03:18:00,
2013-09-20 22:23:00,70.3,68.8,29.79,East,79,0.0,4.0,95,0.01,,,0.76,WeatherTracker,2013-09-21 03:23:00,
2013-09-20 22:28:00,70.3,68.8,29.79,ENE,69,1.0,4.0,95,0.00,,,0.76,WeatherTracker,2013-09-21 03:28:00,
2013-09-20 22:33:00,70.2,68.7,29.79,NE,39,0.0,3.0,95,0.00,,,0.76,WeatherTracker,2013-09-21 03:33:00,
2013-09-20 22:38:00,70.2,68.7,29.79,East,86,1.0,5.0,95,0.00,,,0.76,WeatherTracker,2013-09-21 03:38:00,
2013-09-20 22:43:00,70.2,68.7,29.80,East,81,0.0,5.0,95,0.00,,,0.76,WeatherTracker,2013-09-21 03:43:00,
2013-09-20 22:48:00,70.2,68.7,29.80,NE,42,2.0,5.0,95,0.00,,,0.76,WeatherTracker,2013-09-21 03:48:00,
2013-09-20 22:53:00,70.3,68.8,29.80,East,83,0.0,5.0,95,0.00,,,0.76,WeatherTracker,2013-09-21 03:53:00,
2013-09-20 22:58:00,70.3,68.8,29.80,East,83,1.0,3.0,95,0.00,,,0.76,WeatherTracker,2013-09-21 03:58:00,
2013-09-20 23:01:00,70.3,68.8,29.80,NNW,340,3.0,4.0,95,0.00,,,0.76,WeatherTracker,2013-09-21 04:01:00,
2013-09-20 23:02:00,70.3,68.8,29.80,ENE,72,0.0,5.0,95,0.00,,,0.76,WeatherTracker,2013-09-21 04:02:00,
2013-09-20 23:07:00,70.3,68.8,29.80,ENE,68,1.0,5.0,95,0.00,,,0.76,WeatherTracker,2013-09-21 04:07:00,
2013-09-20 23:12:00,70.4,68.9,29.80,ENE,62,0.0,5.0,95,0.00,,,0.76,WeatherTracker,2013-09-21 04:12:00,
2013-09-20 23:17:00,70.4,68.6,29.80,ENE,66,1.0,5.0,94,0.00,,,0.76,WeatherTracker,2013-09-21 04:17:00,
2013-09-20 23:23:00,70.4,68.9,29.80,ENE,57,0.0,4.0,95,0.00,,,0.76,WeatherTracker,2013-09-21 04:23:00,
2013-09-20 23:28:00,70.5,68.7,29.80,NNE,16,0.0,2.0,94,0.00,,,0.76,WeatherTracker,2013-09-21 04:28:00,
2013-09-20 23:33:00,70.4,68.6,29.79,NE,34,0.0,3.0,94,0.00,,,0.76,WeatherTracker,2013-09-21 04:33:00,
2013-09-20 23:38:00,70.4,68.9,29.79,NNW,347,0.0,5.0,95,0.00,,,0.76,WeatherTracker,2013-09-21 04:38:00,
2013-09-20 23:43:00,70.5,69.0,29.80,ENE,65,2.0,5.0,95,0.00,,,0.76,WeatherTracker,2013-09-21 04:43:00,
2013-09-20 23:48:00,70.5,68.7,29.80,ENE,63,1.0,6.0,94,0.00,,,0.76,WeatherTracker,2013-09-21 04:48:00,
2013-09-20 23:53:00,70.5,68.7,29.80,West,271,3.0,6.0,94,0.00,,,0.76,WeatherTracker,2013-09-21 04:53:00,
2013-09-20 23:58:00,70.5,68.7,29.80,NNE,27,2.0,8.0,94,0.00,,,0.76,WeatherTracker,2013-09-21 04:58:00,